Location: Cuiry
(49.3858°N, 3.7708°E)
Time: 23:13:58
(UTC+00:00)

NOSS 2-3 (C) - Pass Details

Date: 12 January 2026
Orbit: 457 x 1719 km, 63.3° (Epoch: 9 February)

Event Time Altitude Azimuth Distance (km) Brightness Sun altitude
Rises 17:29:10 0° 318° (NW) 2,953 7.4 -12.4°
Reaches altitude 10° 17:31:10 10° 319° (NW) 2,170 6.6 -12.7°
Maximum altitude 17:36:08 80° 47° (NE) 883 4.2 -13.5°
Drops below altitude 10° 17:43:04 10° 135° (SE) 2,989 6.8 -14.6°
Sets 17:46:14 0° 137° (SE) 4,158 7.5 -15.1°
